Time,TemperatureF,DewpointF,PressureIn,WindDirection,WindDirectionDegrees,WindSpeedMPH,WindSpeedGustMPH,Humidity,HourlyPrecipIn,Conditions,Clouds,dailyrainin,SoftwareType,DateUTC
2013-06-25 00:00:00,70.1,67.3,30.23,North,-999,0.0,0.0,91,0.00,,,-99.99,WeatherLink 5.4,2013-06-25 04:00:00,
2013-06-25 00:30:00,69.4,67.0,30.23,North,-999,0.0,0.0,92,0.00,,,-99.99,WeatherLink 5.4,2013-06-25 04:30:00,
2013-06-25 01:00:00,68.9,66.8,30.23,North,-999,0.0,0.0,93,0.00,,,-99.99,WeatherLink 5.4,2013-06-25 05:00:00,
2013-06-25 01:30:00,68.1,66.6,30.22,North,-999,0.0,0.0,95,0.00,,,-99.99,WeatherLink 5.4,2013-06-25 05:30:00,
2013-06-25 02:00:00,67.1,65.9,30.22,SSE,157,0.0,1.0,96,0.00,,,-99.99,WeatherLink 5.4,2013-06-25 06:00:00,
2013-06-25 02:30:00,67.4,65.6,30.21,North,-999,0.0,1.0,94,0.00,,,-99.99,WeatherLink 5.4,2013-06-25 06:30:00,
2013-06-25 03:00:00,67.8,65.7,30.20,North,-999,0.0,1.0,93,0.00,,,-99.99,WeatherLink 5.4,2013-06-25 07:00:00,
2013-06-25 03:30:00,68.1,63.4,30.20,North,-999,0.0,0.0,85,0.00,,,-99.99,WeatherLink 5.4,2013-06-25 07:30:00,
2013-06-25 04:00:00,68.2,65.5,30.20,North,-999,0.0,1.0,91,0.00,,,-99.99,WeatherLink 5.4,2013-06-25 08:00:00,
2013-06-25 04:30:00,66.1,64.0,30.19,North,-999,0.0,0.0,93,0.00,,,-99.99,WeatherLink 5.4,2013-06-25 08:30:00,
2013-06-25 05:00:00,66.0,63.6,30.19,North,-999,0.0,0.0,92,0.00,,,-99.99,WeatherLink 5.4,2013-06-25 09:00:00,
2013-06-25 05:30:00,65.1,64.2,30.20,SSE,157,0.0,2.0,97,0.00,,,-99.99,WeatherLink 5.4,2013-06-25 09:30:00,
2013-06-25 06:00:00,64.3,62.8,30.19,SSE,157,0.0,3.0,95,0.00,,,-99.99,WeatherLink 5.4,2013-06-25 10:00:00,
2013-06-25 06:30:00,66.2,64.1,30.21,North,-999,0.0,0.0,93,0.00,,,-99.99,WeatherLink 5.4,2013-06-25 10:30:00,
2013-06-25 07:00:00,66.5,64.1,30.22,SSE,157,0.0,1.0,92,0.00,,,-99.99,WeatherLink 5.4,2013-06-25 11:00:00,
2013-06-25 07:30:00,66.8,64.1,30.23,SSE,157,0.0,1.0,91,0.00,,,-99.99,WeatherLink 5.4,2013-06-25 11:30:00,
2013-06-25 07:31:00,66.8,64.1,30.23,SSE,157,0.0,1.0,91,0.00,,,-99.99,WeatherLink 5.4,2013-06-25 11:31:00,
2013-06-25 07:32:00,66.8,64.1,30.23,SSE,158,0.0,1.0,91,0.00,,BKN,0.00,VWS V14.01,2013-06-25 11:32:00,
2013-06-25 08:00:00,68.3,65.3,30.22,North,-999,0.0,0.0,90,0.00,,,-99.99,WeatherLink 5.4,2013-06-25 12:00:00,
2013-06-25 08:01:00,68.3,65.3,30.22,North,-999,0.0,0.0,90,0.00,,,-99.99,WeatherLink 5.4,2013-06-25 12:01:00,
2013-06-25 08:30:00,68.4,65.7,30.23,North,-999,0.0,0.0,91,0.00,,,-99.99,WeatherLink 5.4,2013-06-25 12:30:00,
2013-06-25 09:00:00,68.4,66.0,30.24,North,-999,0.0,0.0,92,0.00,,,-99.99,WeatherLink 5.4,2013-06-25 13:00:00,
2013-06-25 09:01:00,68.4,66.0,30.24,North,-999,0.0,0.0,92,0.00,,,-99.99,WeatherLink 5.4,2013-06-25 13:01:00,
2013-06-25 09:30:00,68.5,66.4,30.24,North,-999,0.0,0.0,93,0.00,,,-99.99,WeatherLink 5.4,2013-06-25 13:30:00,
2013-06-25 09:31:00,68.5,66.4,30.24,North,-999,0.0,0.0,93,0.00,,,-99.99,WeatherLink 5.4,2013-06-25 13:31:00,
2013-06-25 10:00:00,68.9,66.8,30.24,North,-999,0.0,0.0,93,0.00,,,-99.99,WeatherLink 5.4,2013-06-25 14:00:00,
2013-06-25 10:30:00,70.0,67.6,30.24,SE,135,0.0,2.0,92,0.00,,,-99.99,WeatherLink 5.4,2013-06-25 14:30:00,
2013-06-25 10:31:00,70.0,67.6,30.24,SE,135,0.0,2.0,92,0.00,,,-99.99,WeatherLink 5.4,2013-06-25 14:31:00,
2013-06-25 11:00:00,71.3,67.9,30.24,North,0,1.0,6.0,89,0.00,,,-99.99,WeatherLink 5.4,2013-06-25 15:00:00,
2013-06-25 11:30:00,71.7,68.3,30.23,NNW,337,2.0,6.0,89,0.00,,,-99.99,WeatherLink 5.4,2013-06-25 15:30:00,
2013-06-25 11:31:00,71.7,68.3,30.23,NNW,337,2.0,6.0,89,0.00,,,-99.99,WeatherLink 5.4,2013-06-25 15:31:00,
2013-06-25 12:00:00,72.5,68.7,30.23,WNW,292,1.0,7.0,88,0.00,,,-99.99,WeatherLink 5.4,2013-06-25 16:00:00,
2013-06-25 12:01:00,72.5,68.7,30.23,WNW,292,1.0,7.0,88,0.00,,,-99.99,WeatherLink 5.4,2013-06-25 16:01:00,
2013-06-25 12:30:00,73.0,68.6,30.22,NW,315,0.0,3.0,86,0.00,,,-99.99,WeatherLink 5.4,2013-06-25 16:30:00,
2013-06-25 13:00:00,72.2,70.4,30.22,SSE,157,1.0,4.0,94,0.00,,,-99.99,WeatherLink 5.4,2013-06-25 17:00:00,
2013-06-25 13:30:00,72.4,69.9,30.21,SSE,157,1.0,4.0,92,0.00,,,-99.99,WeatherLink 5.4,2013-06-25 17:30:00,
2013-06-25 13:31:00,72.4,69.9,30.21,SSE,157,1.0,4.0,92,0.00,,,-99.99,WeatherLink 5.4,2013-06-25 17:31:00,
2013-06-25 14:00:00,73.7,69.9,30.20,SSE,157,0.0,2.0,88,0.00,,,-99.99,WeatherLink 5.4,2013-06-25 18:00:00,
2013-06-25 14:01:00,73.7,69.9,30.20,SSE,157,0.0,2.0,88,0.00,,,-99.99,WeatherLink 5.4,2013-06-25 18:01:00,
2013-06-25 14:30:00,77.3,71.7,30.19,SSE,157,0.0,4.0,83,0.00,,,-99.99,WeatherLink 5.4,2013-06-25 18:30:00,
2013-06-25 15:00:00,74.3,71.8,30.19,NNW,337,3.0,8.0,92,0.00,,,-99.99,WeatherLink 5.4,2013-06-25 19:00:00,
2013-06-25 15:30:00,70.6,68.8,30.18,NNW,337,0.0,1.0,94,0.00,,,-99.99,WeatherLink 5.4,2013-06-25 19:30:00,
2013-06-25 15:31:00,70.6,68.8,30.18,NNW,337,0.0,1.0,94,0.00,,,-99.99,WeatherLink 5.4,2013-06-25 19:31:00,
2013-06-25 16:00:00,69.8,67.7,30.17,North,-999,0.0,1.0,93,0.00,,,-99.99,WeatherLink 5.4,2013-06-25 20:00:00,
2013-06-25 16:30:00,71.0,67.9,30.16,NW,315,0.0,2.0,90,0.00,,,-99.99,WeatherLink 5.4,2013-06-25 20:30:00,
2013-06-25 16:31:00,71.0,67.9,30.16,NW,315,0.0,2.0,90,0.00,,,-99.99,WeatherLink 5.4,2013-06-25 20:31:00,
2013-06-25 17:00:00,73.4,67.9,30.16,NW,315,1.0,4.0,83,0.00,,,-99.99,WeatherLink 5.4,2013-06-25 21:00:00,
2013-06-25 17:30:00,75.1,67.8,30.14,NW,315,2.0,6.0,78,0.00,,,-99.99,WeatherLink 5.4,2013-06-25 21:30:00,
2013-06-25 18:00:00,75.6,69.0,30.14,NW,315,1.0,5.0,80,0.00,,,-99.99,WeatherLink 5.4,2013-06-25 22:00:00,
2013-06-25 18:01:00,75.6,69.0,30.14,NW,315,1.0,5.0,80,0.00,,,-99.99,WeatherLink 5.4,2013-06-25 22:01:00,
2013-06-25 18:30:00,74.6,68.7,30.14,NW,315,0.0,1.0,82,0.00,,,-99.99,WeatherLink 5.4,2013-06-25 22:30:00,
2013-06-25 18:31:00,74.6,68.7,30.14,NW,315,0.0,1.0,82,0.00,,,-99.99,WeatherLink 5.4,2013-06-25 22:31:00,
2013-06-25 19:00:00,74.4,68.2,30.14,North,-999,0.0,0.0,81,0.00,,,-99.99,WeatherLink 5.4,2013-06-25 23:00:00,
2013-06-25 19:30:00,75.4,69.5,30.13,North,-999,0.0,0.0,82,0.00,,,-99.99,WeatherLink 5.4,2013-06-25 23:30:00,
2013-06-25 19:31:00,75.4,69.5,30.13,North,-999,0.0,0.0,82,0.00,,,-99.99,WeatherLink 5.4,2013-06-25 23:31:00,
2013-06-25 19:36:00,74.9,68.7,30.14,NW,322,0.0,0.0,81,0.00,,OVC,0.00,VWS V14.01,2013-06-25 23:36:00,
2013-06-25 20:00:00,74.7,68.8,30.13,North,-999,0.0,0.0,82,0.00,,,-99.99,WeatherLink 5.4,2013-06-26 00:00:00,
2013-06-25 20:01:00,74.7,68.8,30.13,North,-999,0.0,0.0,82,0.00,,,-99.99,WeatherLink 5.4,2013-06-26 00:01:00,
2013-06-25 20:30:00,74.0,69.2,30.13,North,-999,0.0,0.0,85,0.00,,,-99.99,WeatherLink 5.4,2013-06-26 00:30:00,
2013-06-25 20:31:00,74.0,69.2,30.13,North,-999,0.0,0.0,85,0.00,,,-99.99,WeatherLink 5.4,2013-06-26 00:31:00,
2013-06-25 21:00:00,73.2,68.8,30.14,North,-999,0.0,0.0,86,0.00,,,-99.99,WeatherLink 5.4,2013-06-26 01:00:00,
2013-06-25 21:01:00,73.2,68.8,30.14,North,-999,0.0,0.0,86,0.00,,,-99.99,WeatherLink 5.4,2013-06-26 01:01:00,
2013-06-25 21:30:00,72.5,68.4,30.14,North,-999,0.0,0.0,87,0.00,,,-99.99,WeatherLink 5.4,2013-06-26 01:30:00,
2013-06-25 22:00:00,71.6,68.5,30.14,North,-999,0.0,0.0,90,0.00,,,-99.99,WeatherLink 5.4,2013-06-26 02:00:00,
2013-06-25 22:01:00,71.6,68.5,30.14,North,-999,0.0,0.0,90,0.00,,,-99.99,WeatherLink 5.4,2013-06-26 02:01:00,
2013-06-25 22:30:00,70.6,68.5,30.15,North,-999,0.0,0.0,93,0.00,,,-99.99,WeatherLink 5.4,2013-06-26 02:30:00,
2013-06-25 23:00:00,70.1,68.3,30.14,North,-999,0.0,0.0,94,0.00,,,-99.99,WeatherLink 5.4,2013-06-26 03:00:00,
2013-06-25 23:30:00,69.5,68.0,30.15,North,-999,0.0,0.0,95,0.00,,,-99.99,WeatherLink 5.4,2013-06-26 03:30:00,